Вернуться в каталог

STARLINK-4324

АктивенСвязьSSO
NORAD 53085·PAYLOAD·🇺🇸 United States

Запущен Jul 11, 2022 с Vandenberg Space Force Base

Loading…

Ближайшие Пролёты (ближайшие 24 часа)

TLE

СвежийSource: CelesTrak SupGP

Эпоха: Sep 15, 2026, 02:19 UTC

1 53085C 22077AU  26258.09701389 -.00049068  00000+0 -15228-2 0  2585
2 53085  97.2860  73.8146 0001567  95.5504 212.4570 15.33471867    18

Отслеживайте STARLINK-4324 в реальном времени с AllMySat

Download on the App Store